Location: Northern Prairie Star Party
(53.2167°N, 112.5333°W)
Time: 15:27:04
(UTC-06:00)

Daily predictions for brighter satellites

Satellite Brightness Start Highest point End
(mag) Time Altitude Azimuth Time Altitude Azimuth Time Altitude Azimuth
NOSS 3-2 (A) 4.3 21:10:04 10° NW 21:17:05 60° NNE 21:24:53 10° ESE
Cosmos 2266 Rocket 4.2 21:13:30 10° SSE 21:19:15 49° E 21:25:02 10° NNE
SL-16 R/B 2.4 21:14:01 10° S 21:19:29 51° ESE 21:24:58 10° NE
USA 238 DEB 3.9 21:12:29 10° NW 21:19:37 81° NE 21:26:46 10° SE
USA 238 3.9 21:12:35 10° NW 21:19:43 80° NE 21:26:53 10° SE
Cosmos 2151 Rocket 3.5 21:15:41 10° S 21:20:04 79° E 21:24:30 10° NNE
Cosmos 2315 Rocket 4.3 21:14:00 10° N 21:20:07 53° ENE 21:26:14 10° SSE
Meteor 1-23 Rocket 4.2 21:15:28 10° N 21:21:04 71° ENE 21:26:37 10° SSE
Terra 3.9 21:18:50 10° E 21:21:09 14° NE 21:23:26 10° NNE
Helios 1A 3.1 21:19:57 10° SSE 21:24:09 64° ENE 21:28:23 10° N
Meteor 1-29 4.5 21:21:46 10° NE 21:24:17 19° E 21:26:47 10° SE
Cosmos 1536 Rocket 4.2 21:23:48 10° NNW 21:28:05 60° W 21:32:21 10° S
PEGASUS R/B 4.5 21:25:19 10° NE 21:28:18 53° ESE 21:33:16 10° SSW
ERS-1 Rocket 3.3 21:27:40 10° SE 21:32:31 52° ENE 21:37:24 10° N
ATLAS 3B R/B 2.7 21:27:26 10° NW 21:34:20 83° SW 21:40:54 10° SE
Cosmos 1939 Rocket 3.2 21:32:42 10° S 21:36:38 67° WSW 21:40:33 10° NNW
Cosmos 1536 2.8 21:33:28 10° S 21:37:31 68° E 21:41:34 10° NNE
Cosmos 2360 Rocket 2.8 21:35:01 10° S 21:40:00 33° ESE 21:45:00 10° NE
Cosmos 1980 Rocket 3.1 21:35:35 10° SW 21:41:04 54° NW 21:46:35 10° NNE
COSMOS 2428 4.1 21:38:42 10° SE 21:42:26 18° E 21:46:11 10° ENE
Cosmos 1844 4.3 21:37:10 10° NNW 21:42:38 46° NE 21:47:46 12° ESE
Cosmos 1892 Rocket 4.3 21:39:38 10° N 21:43:48 38° ENE 21:47:37 12° SE
Envisat 3.9 21:39:04 10° S 21:43:59 50° W 21:48:58 10° NNW
Cosmos 1238 Rocket 4.4 21:41:54 10° N 21:48:32 53° ENE 21:54:49 10° SSE
ATLAS CENTAUR R/B 3.5 21:46:26 10° NNW 21:48:57 17° NNE 21:51:29 10° ENE
SAR-Lupe-4 3.6 21:47:00 10° SSE 21:50:34 66° ENE 21:54:09 10° N
CZ-4B DEB 2.4 21:47:45 10° SSE 21:50:37 83° ENE 21:53:31 10° NNW
NOSS 2-3 (D) 4.1 21:47:19 10° SSW 21:52:02 54° SE 21:57:42 10° NE
H-2A R/B 2.6 21:49:01 12° SE 21:53:18 40° ENE 21:57:55 10° N
Meteor 1-5 Rocket 4.0 21:48:38 10° S 21:53:54 70° E 21:59:12 10° NNE
EXPRESS MD2 3.9 21:53:01 10° SW 21:55:54 38° SSE 22:01:05 10° E
Cosmos 2333 Rocket 4.0 21:55:01 11° ESE 21:55:57 11° E 21:57:41 10° ENE
NOSS 3-2 (C) 4.1 21:49:11 10° NW 21:56:21 69° NE 22:03:28 13° ESE
NOAA 11 4.2 21:54:42 10° SSE 22:00:14 89° ENE 22:05:47 10° NNW
Cosmos 1486 Rocket 4.0 21:56:45 10° NNW 22:02:02 74° ENE 22:06:31 14° SSE
Helios 1B rocket 2.4 21:59:39 10° NNE 22:03:45 63° ESE 22:07:50 10° S
COSMOS 2455 4.3 21:58:50 10° NW 22:04:06 30° NNE 22:09:22 10° E
Cosmos 405 4.0 22:02:28 16° SE 22:04:33 28° E 22:07:42 10° NNE
SAR-Lupe-1 4.0 22:04:15 13° SSE 22:07:25 85° ENE 22:11:03 10° NNW
MetOp-A 4.2 22:06:10 10° SSE 22:11:32 90° WSW 22:16:56 10° NNW
Cosmos 2237 Rocket 4.1 22:12:24 10° E 22:12:29 10° E 22:13:25 10° E
Cosmos 1110 Rocket 4.0 22:08:20 10° S 22:13:24 60° ESE 22:18:32 10° NNE
Cosmos 1666 4.4 22:14:52 17° E 22:15:37 18° E 22:18:14 10° NE
Cosmos 1455 Rocket 3.9 22:14:10 18° SE 22:16:41 32° E 22:20:40 10° NNE
SPOT 5 2.8 22:12:52 16° SSE 22:16:43 68° ENE 22:21:16 10° N
Cosmos 1066 Rocket 4.1 22:13:13 10° N 22:18:40 75° ENE 22:23:11 15° SSE
ATLAS 2AS CENTAUR R/B 3.0 22:11:07 10° SSW 22:18:53 67° SE 22:26:58 10° NE
Lacrosse 5 2.1 22:15:35 10° SSW 22:20:26 47° SE 22:25:19 10° ENE
CENTAUR R/B 3.5 22:16:00 10° NW 22:23:16 55° NNE 22:30:30 13° ESE
SeaSat 1 2.5 22:18:39 10° NNE 22:23:37 85° NW 22:28:34 10° SW
Cosmos 1331 Rocket 3.9 22:21:13 10° SSW 22:26:23 68° ESE 22:31:37 10° NNE
NOSS 2-3 (E) 4.1 22:23:59 10° SW 22:28:56 89° SE 22:35:00 10° NE
SL-08 RB Rocket 3.7 22:27:46 18° SSE 22:31:12 89° E 22:35:46 10° NNW
Cosmos 1025 Rocket 4.2 22:28:12 10° NNW 22:32:12 39° W 22:36:11 10° SSW
Cosmos 1743 3.6 22:31:23 26° ESE 22:32:29 31° E 22:35:53 10° NNE
BREEZE-M DEB (TANK) 3.0 22:30:47 10° SW 22:31:42 17° SSW 22:31:42 17° SSW
Okean 2 4.5 22:28:55 10° NNW 22:32:48 42° W 22:36:40 10° SSW
Nadezhda 1 Rocket 4.1 22:27:05 10° N 22:33:20 62° ENE 22:37:46 20° SSE
Okean 1 Rocket 4.0 22:31:05 10° SSW 22:35:19 49° WNW 22:39:38 10° N
ARGOS 3.3 22:31:25 13° S 22:36:09 72° WSW 22:41:33 10° NNW
Cosmos 1354 Rocket 4.0 22:34:28 10° NNW 22:39:51 81° ENE 22:43:07 24° SSE
Meteor 1-21 4.4 22:34:38 10° N 22:40:12 58° ENE 22:43:32 24° SE
Cosmos 2263 Rocket 4.4 22:36:17 10° NW 22:40:22 20° W 22:44:25 10° SSW
ERBS 3.1 22:37:23 10° W 22:40:48 52° NNW 22:44:12 10° ENE
Cosmos 1244 Rocket 4.4 22:35:39 10° S 22:41:48 87° E 22:47:59 10° N
Abrixas rocket 3.5 22:39:26 10° WSW 22:42:11 24° SSW 22:42:28 24° S
Landsat 7 3.9 22:39:58 25° SE 22:42:42 65° ENE 22:47:27 10° N
Cosmos 2278 Rocket 2.4 22:39:31 10° NNW 22:45:11 64° NE 22:48:29 25° SE
Cosmos 1844 Rocket 3.0 22:42:27 10° NW 22:48:05 63° WSW 22:51:49 21° S
CARTOSAT-1 3.8 22:47:41 30° SE 22:49:34 53° ENE 22:53:49 10° N
Cosmos 2322 Rocket 3.4 22:45:55 10° WSW 22:51:23 46° NW 22:56:53 10° NNE
SPOT 1/Viking Rocket 3.7 22:51:20 21° S 22:54:51 77° WSW 23:00:07 10° NNW
Cosmos 1818 3.9 22:50:29 13° S 22:54:52 41° ESE 22:59:58 10° NE
Cosmos 1975 2.7 22:52:11 20° S 22:54:54 88° W 22:58:56 10° N
USA 215 3.6 22:48:28 10° E 22:54:56 65° N 23:01:25 10° WNW
Cosmos 1602 Rocket 3.6 22:50:56 10° N 22:55:16 63° ENE 22:56:59 34° SE
YAOGAN 11 4.4 22:54:27 22° S 22:57:08 60° WSW 23:01:26 10° NNW
Meteor 1-29 4.3 22:54:05 10° N 22:57:19 39° WNW 23:00:32 10° SW
Cosmos 2237 4.1 22:52:07 10° SSW 22:57:47 74° ESE 23:03:30 10° NE
Terra 1.9 22:55:49 31° SE 22:58:02 65° ENE 23:02:47 10° N
SL-08 R/B 4.5 22:53:34 14° S 22:59:07 80° E 23:05:28 10° NNE
Nimbus 7 Rocket 4.5 22:54:11 10° NNE 22:59:59 58° ESE 23:03:42 23° S
Cosmos 1503 Rocket 4.2 22:55:34 10° NNW 23:00:56 73° WSW 23:03:54 27° SSE
H-2A R/B 2.8 23:00:58 31° ESE 23:02:28 42° ENE 23:06:40 10° N
USA 81 4.5 22:57:56 10° N 23:03:04 46° ENE 23:05:08 31° SE
SL-16 R/B 3.6 22:58:28 10° WSW 23:03:48 40° NW 23:09:09 10° NNE
Cosmos 1500 4.0 23:01:57 11° SSW 23:05:36 50° WNW 23:09:25 10° N
NOSS 3-2 (A) 4.3 23:01:03 10° NW 23:08:12 57° SW 23:13:01 25° SSE
BREEZE M DEB (TANK) 3.1 23:02:42 10° W 23:08:19 43° SSW 23:08:43 41° S
Cosmos 2219 Rocket 2.5 23:06:05 28° SSE 23:08:31 45° ESE 23:13:53 10° NE
CZ-2C R/B 4.4 23:07:29 19° E 23:09:23 24° ENE 23:13:16 10° N
Meteor 1-12 Rocket 4.3 23:09:23 13° SSW 23:14:23 81° WNW 23:20:06 10° NNE
Cosmos 2322 3.9 23:09:15 10° SW 23:14:54 73° NW 23:20:38 10° NNE
Cosmos 1626 Rocket 3.6 23:14:40 10° NNW 23:19:00 75° W 23:20:35 38° S
SL-16 R/B 3.9 23:21:36 16° E 23:21:36 16° E 23:24:18 10° ENE
DNEPR-1 R/B 3.7 23:19:24 10° NW 23:23:42 70° NE 23:25:15 40° ESE
Cosmos 2360 Rocket 2.9 23:18:15 10° SW 23:23:47 56° NW 23:29:21 10° NNE
ATLAS 3B R/B 4.3 23:19:02 10° WNW 23:24:06 23° WSW 23:28:26 12° SSW
COSMOS 2428 2.6 23:20:09 10° SSW 23:25:54 85° ESE 23:31:40 10° NNE
Cosmos 1943 Rocket 4.4 23:23:38 10° NNW 23:27:18 18° NNE 23:30:58 10° ENE
ATLAS CENTAUR R/B 1.8 23:25:10 10° NW 23:28:46 46° NE 23:29:33 39° ENE
Spot 4 3.9 23:29:38 44° SE 23:31:03 67° ENE 23:35:49 10° N
Cosmos 1437 Rocket 2.9 23:30:01 37° SSW 23:31:29 72° WNW 23:35:26 10° N
Cosmos 1263 4.5 23:32:25 59° WSW 23:32:45 64° WNW 23:36:13 10° N
H-2A R/B 3.1 23:29:40 18° SSW 23:32:48 36° W 23:37:23 10° NNW
Meteor 1-4 Rocket 3.2 23:35:13 43° E 23:35:13 43° E 23:38:32 10° NNE
Cosmos 1745 Rocket 4.1 23:30:27 18° SSW 23:35:05 73° WNW 23:41:18 10° N
CZ-4C R/B 3.7 23:35:54 41° ENE 23:35:55 41° ENE 23:39:13 10° N
NOSS 0 Rocket 4.1 23:35:52 36° SSE 23:37:59 51° ESE 23:44:00 10° NE
Cosmos 2333 Rocket 2.2 23:36:58 37° S 23:39:02 60° ESE 23:44:37 10° NE
Cosmos 1825 Rocket 3.5 23:37:58 10° N 23:42:19 68° ENE 23:42:57 58° SE
Cosmos 2292 Rocket 4.5 23:40:34 23° SSW 23:45:13 81° WNW 23:50:38 10° N
GP-B 3.4 23:41:34 10° N 23:46:00 65° W 23:47:27 40° SSW
Cosmos 2333 4.3 23:40:35 10° SW 23:46:15 78° WNW 23:51:54 10° NNE
RESURS DK-1 3.9 23:48:13 23° ENE 23:48:13 23° ENE 23:50:21 10° NE
IGS 5A 4.1 23:46:13 37° SW 23:47:18 47° W 23:51:21 10° NNW
Meteor 1-15 Rocket 4.5 23:46:22 42° SE 23:48:01 55° E 23:53:49 10° NNE
Cosmos 1992 Rocket 3.9 23:46:40 46° S 23:48:09 68° ESE 23:53:22 10° NNE
Cosmos 1707 3.4 23:44:31 10° N 23:48:14 42° ENE 23:48:15 42° ENE
Cosmos 1666 3.4 23:49:48 37° SW 23:50:55 52° WNW 23:54:43 10° N
COSMOS 2455 2.8 23:44:52 10° NW 23:50:56 78° NE 23:53:12 41° SE
Cosmos 968 Rocket 3.5 23:46:06 10° NNW 23:51:13 72° WSW 23:52:34 48° S
Cosmos 2369 Rocket 3.8 23:46:33 10° NNW 23:51:28 28° NE 23:55:12 15° E
CZ-4 R/B 3.9 23:48:35 10° NNE 23:53:18 56° ESE 23:53:51 53° SE
Cosmos 2058 Rocket 4.3 23:54:16 28° E 23:54:16 28° E 23:57:44 10° NNE
Aureole 2 Rocket 2.8 23:53:55 55° WNW 23:53:58 55° WNW 23:57:05 10° NNE
Cosmos 1455 Rocket 4.5 23:51:16 15° SW 23:54:28 36° WNW 23:58:38 10° N
